Weather History for KRAP - February, 2013

Change the Weather History Date:

Friday, February 22, 2013

  Actual Average Record
Temperature  
Mean Temperature 25 °F 29 °F  
Max Temperature 37 °F 41 °F 70 °F (1958)
Min Temperature 12 °F 16 °F -10 °F (1965)
Degree Days  
Heating Degree Days 40 36  
Month to date heating degree days 780 841  
Since 1 July heating degree days 4773 4997  
Cooling Degree Days 0 0  
Month to date cooling degree days 0 0  
Year to date cooling degree days 0 0  
Moisture  
Dew Point 16 °F    
Average Humidity 74    
Maximum Humidity 88    
Minimum Humidity 59    
Precipitation  
Precipitation T in 0.02 in 0.18 in (1982)
Month to date precipitation 0.17 0.31  
Year to date precipitation 0.60 0.61  
Snow  
Snow 0.20 in 0.20 in 2.40 in (1947)
Month to date snowfall 3.7 4.2  
Since 1 July snowfall 20.3 21.8  
Snow Depth 1.00 in    
Sea Level Pressure  
Sea Level Pressure 29.96 in    
Wind  
Wind Speed 3 mph (SSE)    
Max Wind Speed 10 mph    
Max Gust Speed 15 mph    
Visibility 9 miles    
Events Snow    
T = Trace of Precipitation, MM = Missing Value Source: NWS Daily Summary

Daily Weather History Graph

Daily Weather History Graph

Search for Another Location

Airport or City:

Trip Planner

Search our weather history database for the weather conditions in past years. The results will help you decide how hot, cold, wet, or windy it might be!

Date:

Astronomy

Feb. 22, 2013 Rise Set
Actual Time 6:40 AM MST 5:31 PM MST
Civil Twilight 6:10 AM MST 6:01 PM MST
Nautical Twilight 5:37 AM MST 6:34 PM MST
Astronomical Twilight 5:04 AM MST 7:08 PM MST
Moon 2:41 PM MST (2/22) 4:31 AM MST (2/22)
Length of Visible Light 11h 50m
Length of Day
10h 51m
Waxing Gibbous, 90% of the Moon is Illuminated
Feb 22
Waxing Gibbous
Feb 25
Full
Mar 4
Last Quarter
Mar 11
New
Mar 19
First Quarter

Hourly Weather History & Observations

Time (MST) Temp. Windchill Dew Point Humidity Pressure Visibility Wind Dir Wind Speed Gust Speed Precip Events Conditions
12:05 AM 14.0 °F 5.1 °F 12.2 °F 93% 29.92 in 3.0 mi SE 5.8 mph - 0.00 in Snow Light Snow
12:30 AM 12.2 °F 4.3 °F 10.4 °F 92% 29.91 in 9.0 mi SE 4.6 mph - 0.00 in   Scattered Clouds
12:52 AM 12.9 °F - 9.0 °F 84% 30.06 in 6.0 mi Calm Calm - 0.00 in   Mostly Cloudy
1:49 AM 15.8 °F - 12.2 °F 86% 29.90 in 10.0 mi Calm Calm - N/A   Overcast
1:52 AM 15.1 °F - 12.0 °F 88% 30.05 in 10.0 mi Calm Calm - N/A   Overcast
2:52 AM 16.0 °F - 12.9 °F 88% 30.03 in 5.0 mi Calm Calm - 0.00 in Snow Light Snow
3:52 AM 16.0 °F - 12.9 °F 88% 30.03 in 4.0 mi Calm Calm - 0.00 in Snow Light Snow
4:02 AM 15.8 °F - 12.2 °F 86% 29.89 in 6.0 mi Calm Calm - 0.00 in Snow Light Snow
4:26 AM 17.6 °F - 12.2 °F 79% 29.88 in 7.0 mi Calm Calm - 0.00 in   Overcast
4:37 AM 17.6 °F - 12.2 °F 79% 29.88 in 7.0 mi Calm Calm - 0.00 in   Overcast
4:52 AM 15.8 °F - 12.2 °F 86% 29.89 in 8.0 mi Calm Calm - N/A   Overcast
5:00 AM 15.8 °F - 12.2 °F 86% 29.89 in 8.0 mi Calm Calm - N/A   Overcast
5:52 AM 16.0 °F - 12.9 °F 88% 30.04 in 10.0 mi Calm Calm - N/A   Overcast
6:52 AM 17.1 °F - 14.0 °F 88% 30.05 in 9.0 mi Calm Calm - N/A   Overcast
7:52 AM 17.1 °F - 14.0 °F 88% 30.07 in 7.0 mi Calm Calm - N/A   Overcast
8:07 AM 17.6 °F - 15.8 °F 93% 29.92 in 8.0 mi Calm Calm - N/A   Overcast
8:52 AM 19.0 °F 13.9 °F 15.1 °F 85% 30.06 in 10.0 mi SSE 3.5 mph - N/A   Overcast
9:52 AM 21.0 °F 16.2 °F 17.1 °F 85% 30.06 in 10.0 mi SE 3.5 mph - N/A   Scattered Clouds
10:52 AM 25.0 °F 20.7 °F 19.9 °F 81% 30.04 in 10.0 mi Variable 3.5 mph - N/A   Partly Cloudy
11:52 AM 27.0 °F 19.5 °F 23.0 °F 85% 30.03 in 10.0 mi SSE 6.9 mph - N/A   Partly Cloudy
12:52 PM 32.0 °F 24.8 °F 25.0 °F 75% 29.99 in 10.0 mi SSE 8.1 mph - N/A   Partly Cloudy
1:52 PM 33.1 °F 26.1 °F 25.0 °F 72% 29.97 in 10.0 mi SSE 8.1 mph - N/A   Overcast
2:52 PM 35.1 °F 30.1 °F 24.1 °F 64% 29.94 in 10.0 mi South 5.8 mph - N/A   Overcast
3:52 PM 36.0 °F 29.0 °F 23.0 °F 59% 29.93 in 10.0 mi SSE 9.2 mph - N/A   Scattered Clouds
4:52 PM 34.0 °F 26.6 °F 21.9 °F 61% 29.92 in 10.0 mi SSE 9.2 mph - N/A   Partly Cloudy
5:52 PM 30.0 °F 25.2 °F 21.9 °F 72% 29.93 in 10.0 mi SE 4.6 mph - N/A   Mostly Cloudy
6:52 PM 30.0 °F 26.5 °F 21.0 °F 69% 29.92 in 10.0 mi South 3.5 mph - N/A   Mostly Cloudy
7:52 PM 26.1 °F - 19.0 °F 75% 29.93 in 10.0 mi Calm Calm - N/A   Clear
8:52 PM 23.0 °F - 17.1 °F 78% 29.92 in 10.0 mi Calm Calm - N/A   Clear
9:52 PM 19.9 °F - 16.0 °F 85% 29.91 in 10.0 mi Calm Calm - N/A   Clear
10:52 PM 17.1 °F - 12.9 °F 84% 29.88 in 10.0 mi Calm Calm - N/A   Clear
11:52 PM 17.1 °F - 12.0 °F 81% 29.86 in 10.0 mi Calm Calm - N/A   Clear